Location: Pinon Hills
(34.4429°N, 117.6403°W)
Time: 12:31:46
(UTC-07:00)

Daily predictions for brighter satellites

Satellite Brightness Start Highest point End
(mag) Time Altitude Azimuth Time Altitude Azimuth Time Altitude Azimuth
Okean 2 Rocket 3.6 19:49:18 10° SSW 19:53:46 69° W 19:58:17 10° N
SJ-6B 2.9 19:49:54 10° SSE 19:53:56 72° ENE 19:58:04 10° N
Meteor 1-11 Rocket 4.1 19:48:46 10° SSE 19:54:19 47° E 19:59:46 10° NNE
Delta 2 Rocket 3.1 19:50:41 10° WSW 19:54:23 79° SSE 19:58:35 10° E
NOSS 2-3 (E) 3.8 19:50:00 10° SSW 19:54:34 87° SE 19:59:44 10° NNE
HJ-1C 3.3 19:57:41 10° SSE 20:01:04 78° ENE 20:04:28 10° N
Cosmos 44 Rocket 3.9 19:57:12 10° NW 20:01:53 56° WSW 20:06:37 10° SSE
Cosmos 2360 Rocket 2.8 19:58:12 10° SSE 20:03:13 34° ESE 20:08:14 10° NE
SeaSat 1 3.3 20:00:20 10° NE 20:04:27 26° ESE 20:08:33 10° SSE
Cosmos 1420 Rocket 4.4 19:59:21 10° SSW 20:04:29 70° WNW 20:09:40 10° NNE
Cosmos 1850 Rocket 4.4 20:05:03 10° N 20:10:11 47° ENE 20:15:14 10° SE
COSMOS 2428 4.1 20:09:04 10° SE 20:12:34 17° E 20:16:04 10° ENE
Resurs 1-3 3.9 20:09:54 10° SSE 20:14:06 48° ENE 20:18:19 10° N
Cosmos 1655 Rocket 4.3 20:08:47 10° S 20:15:03 76° W 20:21:25 10° N
USA 186 2.2 20:17:39 10° SSE 20:20:53 47° ENE 20:24:08 10° N
Meteor 1-19 Rocket 4.2 20:16:17 10° N 20:22:09 78° E 20:27:53 10° SSE
Cosmos 614 Rocket 4.1 20:18:05 10° NNW 20:23:13 79° WSW 20:28:22 10° S
Cosmos 1536 2.8 20:20:31 10° S 20:24:32 64° E 20:28:33 10° NNE
Cosmos 1300 Rocket 3.4 20:20:37 10° S 20:24:52 66° E 20:29:09 10° NNE
Meteor 1-5 Rocket 4.2 20:20:28 10° SSE 20:25:35 49° E 20:30:40 10° NNE
Lacrosse 5 rocket 3.3 20:23:16 10° WNW 20:26:13 22° WSW 20:29:17 10° S
Cosmos 1025 Rocket 4.4 20:23:02 10° NNE 20:26:15 21° ENE 20:27:31 18° E
CZ-2D R/B 3.2 20:23:05 10° SSE 20:26:57 88° W 20:30:48 10° NNW
Cosmos 1140 Rocket 4.0 20:21:48 10° NNW 20:26:57 61° WSW 20:32:06 10° S
Tiangong 1 1.4 20:25:00 10° NW 20:27:41 43° NNE 20:28:58 24° E
BREEZE M DEB (TANK) 3.7 20:13:31 10° SW 20:28:01 62° SE 20:31:52 10° ENE
Okean 1 Rocket 3.3 20:24:00 10° SSE 20:28:08 45° E 20:32:19 10° NNE
Meteosat 1 Rocket2 4.0 20:24:22 10° WSW 20:28:35 42° S 20:32:37 18° ESE
Cosmos 1939 Rocket 3.7 20:27:31 19° ESE 20:29:38 31° ENE 20:33:07 10° N
H-2A R/B 4.5 20:29:28 10° SSW 20:32:55 33° W 20:36:21 10° NNW
Cosmos 1607 4.2 20:27:34 10° NNW 20:33:56 57° ENE 20:38:34 19° SE
Spot 2 Rocket 3.4 20:30:12 10° SSE 20:35:17 79° ENE 20:40:23 10° N
Helios 1A 4.2 20:37:47 23° E 20:38:58 26° ENE 20:42:30 10° NNE
Meteor 2-4 Rocket 3.7 20:35:06 10° N 20:40:45 79° E 20:46:32 10° S
YAOGAN 6 3.3 20:44:35 30° E 20:45:00 31° ENE 20:48:09 10° N
OAO 1 Rocket 4.5 20:40:23 10° W 20:45:45 83° N 20:49:11 23° E
Cosmos 1818 3.9 20:40:49 10° S 20:45:48 39° ESE 20:50:49 10° NE
ERS-1 Rocket 4.3 20:46:58 21° E 20:47:52 22° ENE 20:51:38 10° NNE
ASTRO E2 3.6 20:45:16 10° SW 20:48:46 29° SSE 20:49:06 29° SSE
Abrixas 2.7 20:46:43 10° WSW 20:49:16 55° NW 20:50:22 28° NNE
Okean 1-7 Rocket 4.1 20:49:01 10° N 20:53:17 41° E 20:54:27 34° ESE
ATLAS 3B R/B 3.1 20:48:00 10° NNW 20:54:19 42° NE 20:57:14 27° ESE
Resurs 01 Rocket 2.5 20:50:57 10° S 20:55:15 49° W 20:59:35 10° NNW
Cosmos 2266 Rocket 4.2 20:55:54 10° SSW 21:01:55 70° W 21:07:57 10° N
USA 267 3.5 20:58:15 21° SSE 21:02:47 67° SW 21:09:19 10° NW
Envisat 3.3 21:00:07 12° S 21:04:45 67° WSW 21:09:49 10° NNW
Cosmos 2263 Rocket 2.7 21:06:25 10° NNW 21:11:59 58° WSW 21:15:50 20° S
Lacrosse 5 4.2 21:08:44 10° W 21:12:51 24° NW 21:16:58 10° NNE
Aureole 3 Rocket 4.4 21:10:21 10° N 21:17:25 42° ENE 21:18:23 39° E
Intelsat 5-1 Rocket 4.4 20:53:18 10° WSW 21:17:51 52° S 21:22:07 34° SE
Cosmos 1844 Rocket 3.6 21:13:03 10° N 21:18:03 31° ENE 21:18:29 30° ENE
Cosmos 1515 4.0 21:14:49 10° N 21:18:01 53° NE 21:18:01 53° NE
Nadezhda 2 Rocket 4.4 21:13:13 10° S 21:19:21 88° W 21:25:37 10° N
Helios 1B rocket 2.3 21:15:39 10° NNE 21:19:46 89° WNW 21:20:52 48° SSW
Cosmos 2278 Rocket 4.3 21:17:38 10° NNE 21:19:54 12° NE 21:20:01 12° NE
Spot 1 4.4 21:19:14 51° SE 21:20:24 68° ENE 21:25:25 10° N
Cosmos 2315 Rocket 3.9 21:15:17 10° N 21:21:36 86° E 21:24:52 31° S
GPS 2-05 Rocket1 4.5 21:20:26 10° W 21:22:33 25° SW 21:22:33 25° SW
Cosmos 1892 Rocket 4.5 21:19:57 10° N 21:23:06 35° NE 21:23:06 35° NE
Atlas Centaur 2 3.5 21:17:34 10° W 21:25:14 40° SSW 21:27:38 32° SSE
Cosmos 1302 Rocket 3.9 21:21:03 10° SSW 21:26:20 89° WNW 21:31:38 10° NNE
H-2A R/B 3.5 21:27:32 22° NE 21:27:32 22° NE 21:30:27 10° NNE
Cosmos 2237 4.5 21:22:13 10° SSW 21:27:50 68° WNW 21:33:31 10° NNE
Cosmos 1500 3.4 21:29:26 65° N 21:29:26 65° N 21:32:49 10° N
Cosmos 2219 Rocket 2.7 21:31:38 42° ENE 21:31:38 42° ENE 21:35:51 10° NNE
Cosmos 1544 Rocket 4.4 21:34:25 39° NNE 21:34:25 39° NNE 21:37:23 10° NNE
Cosmos 1745 Rocket 4.3 21:35:31 46° ENE 21:35:31 46° ENE 21:40:56 10° NNE
Cosmos 1486 Rocket 4.1 21:31:28 10° N 21:36:24 56° ENE 21:36:24 56° ENE
Delta 2 Rocket 3.6 21:32:54 10° W 21:36:35 69° NW 21:36:35 69° NW
Terra 4.2 21:43:40 11° NE 21:43:40 11° NE 21:43:59 10° NE
Okean 2 4.0 21:37:38 10° NNW 21:41:37 52° W 21:41:40 52° W
SeaSat 1 4.1 21:37:32 10° N 21:41:56 33° WNW 21:46:18 10° WSW
FALCON 9 R/B 3.9 21:37:32 10° SSW 21:48:21 29° E 21:59:49 10° ENE
Cosmos 1975 4.0 21:45:06 37° N 21:45:06 37° N 21:47:36 10° N
Cosmos 1455 Rocket 4.2 21:46:54 35° NNE 21:46:54 35° NNE 21:49:32 10° N
NOSS 3-4 (A) 3.3 21:39:17 10° SSW 21:45:31 71° ESE 21:51:52 10° NE
NOSS 3-4 (C) 3.3 21:39:24 10° SSW 21:45:37 71° ESE 21:51:58 10° NE
Cosmos 2360 Rocket 4.2 21:42:23 10° WSW 21:47:10 28° WNW 21:51:58 10° N
COSMOS 2428 3.3 21:50:41 10° SW 21:56:17 55° WNW 22:01:55 10° NNE
Cosmos 1844 4.2 21:57:56 10° NNW 22:02:38 51° NNE 22:02:38 51° NNE
MetOp-A 4.3 22:05:42 69° WNW 22:05:42 69° WNW 22:10:45 10° NNW
Cosmos 2333 Rocket 3.0 22:11:01 42° NNE 22:11:01 42° NNE 22:14:41 10° NNE
Cosmos 2237 Rocket 4.0 22:23:58 22° NNE 22:23:58 22° NNE 22:25:51 10° NNE
ERS-1 Rocket 4.3 22:26:59 35° W 22:26:59 35° W 22:30:59 10° NNW
Nadezhda 1 Rocket 4.2 22:21:59 10° N 22:27:23 66° NNW 22:27:23 66° NNW
NOSS 3-2 (A) 3.9 22:24:52 10° NNW 22:32:34 88° NNE 22:32:34 88° NNE
ARGOS 4.2 22:35:33 40° WNW 22:35:33 40° WNW 22:39:38 10° NNW
USA 238 DEB 4.4 22:29:10 10° NW 22:35:52 46° WSW 22:35:58 46° WSW
USA 238 4.4 22:29:15 10° NW 22:35:59 46° WSW 22:36:03 46° WSW
ATLAS 3B R/B 3.9 22:39:06 10° NW 22:44:30 30° WSW 22:44:30 30° WSW
Cosmos 1844 Rocket 4.5 22:56:55 10° NW 23:00:10 26° WNW 23:00:10 26° WNW
Cosmos 2278 Rocket 3.8 22:58:59 10° NNW 23:01:51 31° NNW 23:01:51 31° NNW
H-2A R/B 4.2 23:08:11 21° NW 23:08:11 21° NW 23:10:13 10° NW
NOSS 3-2 (C) 4.4 23:05:27 10° NW 23:11:38 57° WNW 23:11:38 57° WNW
Cosmos 2219 Rocket 4.4 23:13:13 19° WNW 23:14:36 20° WNW 23:18:44 10° N
CENTAUR R/B 3.7 23:24:54 10° NNW 23:30:54 53° N 23:30:54 53° N
